Terug naar catalogus

COSMOS 375 DEB

ActiefLEO
NORAD 4665·DEBRIS·🇷🇺 Russia

Gelanceerd Oct 30, 1970 vanaf Baikonur Cosmodrome

Loading…

Volgende Passages (komende 24 uur)

TLE

VersSource: Space-Track

Epoch: Sep 14, 2026, 09:49 UTC

1 04665U 70091S   26257.40967754  .00000987  00000-0  25202-3 0  9990
2 04665  62.5298 196.7088 0673795 191.5479 166.9414 13.68929019667498

Volg COSMOS 375 DEB in realtime met AllMySat

Download on the App Store